User: anonymous   Login
Location: Brno
(49.2000°N, 16.6330°E)
Time: 08:53:29
(UTC+02:00)
Language:

Cosmos 2227 - Orbit

View from above orbital plane
View from above orbital plane
View from above satellite
View from above satellite

Ground track
Ground track

The orbit data is extracted from the following two-line orbital elements,

1 22284U 92093A   16149.92690220 +.00000020 +00000-0 +36041-4 0  9992
2 22284 070.9793 321.0067 0018190 028.7810 331.4311 14.13271896208085
Epoch (UTC): 28 May 2016 22:14:44
Eccentricity: 0.0018190
inclination: 70.9793°
perigee height: 835 km
apogee height: 861 km
right ascension of ascending node: 321.0067°
argument of perigee: 28.7810°
revolutions per day: 14.13271896
mean anomaly at epoch: 331.4311°
orbit number at epoch: 20808

The dashed part of the orbit path shows where the satellite is in the earth's shadow,  

DLR